Flag for Germany Weather past 2 weeks in Minden, North Rhine-Westphalia, Germany

Now
52 °F

Fog.


Feels Like: 52 °F
Forecast: 49 / 69 °F
Wind: 2 mph from Southwest

Location: Bueckeburg


UV Index: 0 (Low)

Visibility: 0 mi


Pressure: 29.98 "Hg

Humidity: 94%

Dew point: 50 °F

Location of MindenLocation

Historic Weather in Minden

°F

Minden temperature yesterday

Maximum temperature yesterday: 66 °F (at 2:20 PM)
Minimum temperature yesterday: 45 °F (at 5:20 AM)
Average temperature yesterday: 56 °F

Past Weeks' High & Low Weather Summary

 TemperatureHumidityPressure
High68 °F (Apr 23, 2:20 PM)100% (Apr 11, 9:20 AM)30.48 "Hg (Apr 11, 9:20 AM)
Low30 °F (Apr 16, 4:20 AM)31% (Apr 17, 6:20 PM)29.68 "Hg (Apr 21, 2:20 PM)
Average51 °F74%30.03 "Hg
* Reported Apr 10 6:20 AM — Apr 25 6:47 AM, Minden, Weather by CustomWeather, © 2014

Note: Actual official high and low records may vary slightly from our data, if they occured in-between our weather recording intervals... More about our weather records

Advertising

Historic Weather Conditions — Data for Previous 24 hours

 ConditionsComfort  
Time TempWeatherWind HumidityBarometerVisibility
6:47 AM
Apr 25
50 °FFog.2 mph100%29.98 "Hg1 mi
6:20 AM48 °FFog.5 mph100%29.98 "Hg0 mi
5:55 AM46 °FFog.1 mph93%29.98 "Hg0 mi
5:20 AM48 °FFog.1 mph100%30.01 "Hg1 mi
4:20 AM50 °FFog.3 mph94%30.01 "Hg2 mi
3:20 AM50 °FPassing clouds.2 mph100%30.01 "Hg4 mi
2:20 AM52 °FPassing clouds.3 mph94%30.01 "Hg5 mi
1:20 AM55 °FPassing clouds.2 mph88%30.04 "Hg5 mi
12:20 AM55 °FPassing clouds.5 mph88%30.04 "Hg5 mi
11:20 PM
Apr 24
55 °FPassing clouds.3 mph88%30.07 "Hg6 mi
10:20 PM57 °FPassing clouds.3 mph82%30.07 "HgN/A
9:20 PM59 °FPartly sunny.5 mph82%30.07 "HgN/A
8:20 PM61 °FPartly sunny.6 mph72%30.07 "HgN/A
7:20 PM63 °FScattered clouds.9 mph73%30.04 "HgN/A
6:20 PM64 °FScattered clouds.10 mph68%30.07 "HgN/A
5:20 PM66 °FScattered clouds.13 mph60%30.07 "HgN/A
4:20 PM66 °FScattered clouds.10 mph68%30.07 "Hg6 mi
3:20 PM64 °FScattered clouds.12 mph73%30.09 "HgN/A
2:20 PM66 °FPassing clouds.10 mph73%30.09 "HgN/A
1:20 PM64 °FPassing clouds.9 mph73%30.12 "HgN/A
12:20 PM64 °FPassing clouds.8 mph78%30.12 "Hg6 mi
11:20 AM61 °FPassing clouds.5 mph94%30.15 "Hg5 mi
10:55 AM57 °FFog.2 mph100%30.15 "Hg3 mi
10:20 AM54 °FFog.2 mph94%30.15 "Hg1 mi
9:20 AM52 °FFog.2 mph94%30.15 "Hg0 mi
9:00 AM52 °FFog.3 mph94%30.15 "Hg0 mi
8:20 AM52 °FFog.3 mph94%30.15 "Hg0 mi
Weather by CustomWeather, © 2014

See weather overview